GFSSE_sfc_wetblb_276.txt.gz
Wetbulb
57.14 59.57 66.31 68.80 70.38 70.33 70.60 71.16 71.42 71.65 71.96 71.18 71.07 71.23 71.02 70.72 70.44 70.29 70.91 70.23 69.40 69.07 68.48 69.29 69.75 69.21 69.00 68.79 68.77 68.47 67.76 66.90 66.16 66.20 66.57 65.84 66.61 67.85 67.77 66.62 66.42 63.58 64.71
58.23 62.59 65.55 68.93 69.98 70.46 71.12 70.98 70.78 71.34 71.38 71.31 71.24 71.10 71.03 70.57 70.03 70.43 70.17 70.70 70.34 69.29 69.26 69.73 68.89 68.16 67.84 68.09 67.54 67.16 66.58 65.97 66.57 66.82 66.85 66.47 66.40 67.10 67.35 66.08 65.82 62.95 63.67
59.03 62.72 67.43 69.47 69.47 71.07 71.11 71.04 71.11 70.85 70.64 71.00 70.88 71.03 70.80 70.25 69.90 70.06 69.70 70.69 69.90 68.65 68.69 68.06 67.75 66.85 66.66 67.42 67.25 66.62 65.91 65.51 66.22 66.99 66.66 63.16 61.58 65.79 65.70 65.23 64.49 63.46 63.89
60.20 63.07 64.94 67.87 68.95 69.69 70.23 71.02 70.94 70.71 70.33 70.36 70.61 70.91 70.79 70.09 69.37 69.61 69.51 70.35 70.24 68.74 67.57 66.93 67.09 66.68 66.20 67.02 67.14 66.60 66.01 65.55 65.81 65.51 61.61 61.80 62.78 64.89 64.63 64.28 64.06 64.03 62.83
59.59 62.35 62.90 65.81 68.80 68.93 69.27 69.91 70.76 70.13 69.89 69.87 69.87 70.29 70.65 70.03 68.97 69.26 69.17 69.90 69.94 68.43 67.14 66.47 66.97 65.96 66.59 66.79 66.62 66.19 65.64 65.67 65.72 63.86 61.92 61.09 60.42 62.57 64.51 63.63 63.13 63.10 62.70
57.86 58.96 62.00 63.74 65.42 67.58 68.32 68.84 69.08 69.49 69.52 69.54 69.77 70.09 69.99 69.99 68.86 68.86 68.58 69.10 69.42 68.97 67.08 66.57 65.50 65.42 66.24 66.08 65.68 64.98 64.70 63.95 64.20 61.95 60.85 62.42 60.23 63.26 63.77 63.50 62.39 61.90 61.86
56.24 57.79 58.46 61.09 63.26 64.33 66.84 67.22 67.40 67.57 68.98 69.67 69.67 69.43 70.07 69.85 69.92 69.02 68.46 69.51 68.91 68.89 66.77 66.14 65.81 65.45 65.37 65.28 64.54 63.26 62.45 62.87 58.64 58.67 60.71 61.35 63.69 64.33 63.78 63.37 62.21 61.57 61.32
55.33 55.99 56.39 57.90 59.49 62.10 63.29 64.06 65.37 66.57 67.26 67.14 68.10 69.09 69.73 69.76 69.55 69.41 69.12 68.97 69.25 68.69 67.14 65.90 65.11 64.69 64.80 64.56 63.32 61.82 61.57 61.01 58.76 58.12 59.74 59.79 64.18 65.04 64.72 63.55 61.90 61.34 61.01
55.36 54.58 54.30 55.83 57.42 58.62 60.16 62.22 62.45 63.50 65.14 66.38 67.73 67.88 67.00 66.79 68.67 68.49 68.93 69.14 69.05 68.52 67.40 65.83 65.24 64.50 64.01 63.51 62.23 61.07 60.49 60.09 56.78 58.05 59.75 58.76 63.42 63.42 63.79 62.68 61.34 60.82 60.32
54.05 53.94 53.13 53.52 55.39 56.24 58.09 60.90 61.03 61.88 61.76 63.51 65.31 65.21 64.00 65.40 65.39 65.86 65.59 67.36 68.22 67.53 67.58 66.77 66.06 65.18 63.68 62.77 61.48 60.55 59.89 59.69 56.75 58.22 60.08 60.43 63.18 61.97 61.83 61.31 60.32 59.59 59.09
51.68 52.10 51.73 51.01 52.91 54.79 56.68 58.26 60.53 61.65 61.48 62.10 63.45 62.65 63.35 64.06 64.62 64.72 64.19 65.37 67.25 67.01 66.93 66.72 66.07 64.73 63.38 62.09 60.85 59.96 59.29 56.72 56.52 57.08 58.05 62.33 62.03 61.46 60.94 60.14 60.22 59.37 58.84
47.40 49.26 50.24 49.59 49.90 52.92 55.22 56.51 58.43 61.28 61.10 62.05 62.59 63.39 64.55 63.75 62.58 65.49 62.05 63.07 64.75 65.04 65.91 66.35 65.12 63.06 60.58 58.19 57.24 58.51 56.28 56.27 56.44 56.78 57.84 61.81 61.65 61.03 60.29 59.39 58.94 58.26 57.86
46.39 47.58 48.51 48.52 49.10 50.40 52.72 54.09 57.30 59.66 60.24 60.49 61.40 61.72 64.37 63.26 61.89 64.29 63.11 63.86 63.59 60.71 62.79 64.27 63.07 61.16 59.15 57.02 56.37 56.01 56.80 56.71 56.24 56.32 58.18 60.54 60.82 60.61 60.16 59.11 58.82 58.70 59.05
45.33 45.95 46.85 46.65 47.37 48.59 50.58 53.71 55.18 55.74 59.85 59.59 60.83 61.75 62.48 62.77 61.48 64.15 64.38 64.46 63.76 62.68 61.56 62.20 62.45 61.45 59.85 58.42 57.20 56.77 56.79 56.46 56.33 56.59 56.23 58.41 60.66 60.07 60.29 60.51 60.56 60.65 61.33
43.92 45.24 45.65 45.52 45.53 47.46 47.76 52.02 52.92 54.36 55.94 58.04 58.80 60.58 61.99 63.15 62.12 63.14 64.41 64.60 63.93 63.02 61.83 60.96 61.64 61.14 60.17 58.47 58.00 57.14 56.59 56.54 56.72 57.00 55.64 56.45 58.97 59.89 61.25 61.96 62.75 63.02 63.09
43.96 44.32 45.46 45.79 45.46 47.15 47.26 49.41 50.88 53.94 55.33 56.55 57.40 59.05 61.98 62.85 62.50 62.71 63.51 63.83 63.49 62.81 61.95 60.20 58.98 59.66 58.96 58.03 57.54 57.57 57.11 57.06 57.28 57.03 57.09 55.65 58.04 59.29 59.88 60.67 61.23 61.98 62.45
43.15 44.39 44.76 45.40 46.09 46.10 46.78 48.48 49.59 52.93 55.03 55.46 57.37 58.03 61.83 62.46 62.34 62.30 63.03 63.05 63.50 62.83 60.67 59.90 58.55 58.93 58.02 57.59 57.40 57.88 58.05 57.60 57.18 56.92 56.82 57.09 56.75 57.54 58.94 59.78 60.37 60.94 61.62
42.00 42.67 44.32 46.11 45.91 46.47 46.81 47.12 49.79 51.45 53.56 53.78 55.83 56.12 61.67 61.54 62.26 62.00 62.89 63.10 63.15 61.99 60.34 59.63 57.92 56.08 56.50 57.16 56.65 57.23 57.87 57.95 57.70 57.00 56.52 56.38 56.71 57.28 57.87 59.66 59.26 59.66 59.86
41.43 41.86 42.66 43.86 44.34 44.82 45.71 46.93 48.01 50.24 51.40 51.99 53.96 54.62 61.18 62.23 62.27 62.41 62.71 62.81 62.06 61.69 60.86 59.31 56.57 56.16 56.07 55.67 56.39 57.23 57.34 57.48 57.76 58.16 57.65 57.58 57.23 57.12 57.06 59.01 58.19 57.56 58.35
40.66 40.89 41.60 42.82 43.56 43.87 44.29 44.81 46.19 48.77 47.94 51.05 51.44 53.18 58.76 61.69 62.18 62.30 62.35 62.74 61.26 60.72 59.98 58.39 56.69 55.78 56.32 56.10 56.92 56.54 56.70 57.44 58.16 57.95 57.66 58.30 58.66 57.75 57.32 57.41 56.32 55.61 57.51
40.06 39.96 39.76 40.47 41.90 42.22 41.12 40.90 41.55 44.08 45.31 48.41 50.06 51.61 54.25 61.35 61.63 61.18 61.33 60.78 61.18 60.10 59.51 58.73 56.43 55.65 55.15 55.77 54.31 53.89 55.04 56.84 56.87 58.18 58.33 57.71 56.83 58.19 57.69 57.42 56.77 55.90 54.10
38.31 38.34 38.99 39.67 40.88 41.50 41.00 41.13 41.14 43.34 45.70 48.27 47.58 48.62 51.43 55.20 58.25 60.67 60.55 60.88 61.18 60.05 58.40 58.30 56.69 54.96 55.26 56.19 53.66 53.26 50.68 53.75 55.35 52.26 52.46 52.54 52.61 53.36 53.75 52.61 50.19 49.31 47.74
36.59 36.60 38.32 39.23 40.28 40.72 41.03 41.53 41.61 45.15 45.96 45.28 44.84 45.75 47.53 52.50 54.73 57.62 59.51 60.70 60.84 60.51 59.36 58.40 57.91 56.15 54.79 55.81 56.51 53.38 49.37 46.44 49.60 51.39 51.04 51.11 52.17 52.14 49.90 48.91 47.73 45.98 45.01
36.18 37.19 38.69 39.71 40.48 41.23 41.30 39.84 39.47 40.52 40.68 42.88 43.98 45.24 47.16 50.64 52.22 53.86 56.62 59.83 59.57 59.70 58.51 59.08 59.22 58.58 57.48 54.90 56.63 56.19 54.72 52.81 48.66 48.94 52.38 52.70 52.34 50.42 47.77 46.06 44.47 43.82 43.03
37.01 35.89 37.85 39.31 40.19 41.16 40.68 39.45 39.29 39.70 42.19 43.62 44.53 44.51 45.59 47.95 50.63 51.56 53.44 56.21 59.92 59.95 59.25 59.13 58.26 58.15 57.35 55.82 54.74 53.19 53.13 53.78 53.07 50.52 47.95 50.64 49.91 46.71 44.92 43.78 43.06 41.79 40.61
36.30 35.82 36.69 37.57 39.42 40.14 39.54 38.81 38.76 40.05 41.03 42.32 42.81 43.34 43.87 46.00 48.51 49.55 50.51 52.98 56.40 59.79 59.85 59.58 58.85 58.14 57.66 56.78 56.17 55.38 53.94 52.26 51.86 50.55 49.61 51.26 50.23 44.93 43.19 42.18 40.85 40.56 39.92

GFSSE_sfc_wetblb_279.txt.gz
Wetbulb
56.76 59.79 65.88 69.40 70.10 70.33 70.18 70.65 71.38 72.02 71.64 71.14 71.39 71.30 70.81 70.36 70.48 70.70 70.46 69.59 69.30 69.47 69.90 69.84 69.76 69.44 69.81 69.68 68.61 67.81 66.82 66.35 67.28 66.89 67.19 67.83 68.16 67.91 66.93 65.65 64.90 62.02 63.67
58.89 62.39 65.20 68.30 70.54 69.97 70.65 70.15 71.36 71.70 71.87 71.32 71.16 71.23 70.88 70.26 70.13 70.26 70.36 70.35 70.11 68.85 69.93 69.51 69.29 68.97 68.61 68.13 67.56 66.63 66.29 66.60 66.97 66.76 66.99 67.05 67.30 67.25 66.22 64.97 65.15 62.47 63.92
59.22 62.43 63.47 66.22 69.67 69.72 70.16 69.93 70.62 70.99 70.92 70.95 71.22 71.09 70.80 70.04 69.84 70.21 69.76 70.60 70.27 70.05 69.43 68.72 67.77 68.00 67.81 67.19 66.36 65.95 65.98 66.33 66.73 66.47 65.16 61.11 62.59 66.06 65.21 64.01 63.94 65.67 65.31
59.12 59.98 62.44 64.88 66.91 69.34 69.22 69.82 69.42 70.41 70.51 70.64 70.85 71.00 70.32 69.81 69.44 69.68 69.50 70.54 69.95 68.36 67.88 67.22 66.54 66.71 67.44 66.96 66.46 66.16 65.80 65.76 65.89 64.92 61.44 61.10 62.05 64.92 65.18 64.94 64.05 63.45 64.26
57.52 58.92 59.80 63.39 65.62 66.83 68.46 68.52 69.30 69.26 69.50 69.72 70.00 70.50 70.39 70.03 69.32 69.27 69.03 70.01 69.84 68.07 66.81 67.22 66.55 66.43 67.20 67.08 66.51 66.20 65.93 66.29 65.00 62.52 58.54 58.27 60.10 63.83 64.11 64.02 63.31 63.11 62.80
55.60 57.26 58.41 62.06 63.81 65.20 65.80 68.35 68.35 68.23 68.14 67.80 68.41 69.21 69.66 69.64 69.22 69.06 68.98 69.87 69.53 68.42 66.64 66.61 66.05 67.15 66.81 66.49 65.90 65.94 64.46 64.42 63.57 60.16 58.46 61.81 59.52 64.32 63.65 62.50 61.98 61.98 61.28
54.44 55.94 56.63 59.59 61.19 62.96 64.28 65.93 66.20 66.63 67.61 67.38 67.90 68.11 68.63 69.14 69.14 68.59 68.90 69.81 69.46 68.42 66.94 65.88 65.86 66.54 66.06 65.63 64.79 63.63 62.65 62.27 59.60 59.79 60.71 62.68 62.41 64.01 63.68 62.49 61.59 61.29 61.11
53.21 54.08 54.55 55.96 58.29 59.72 61.87 63.45 64.16 66.13 66.53 67.09 67.15 67.80 67.96 68.24 68.59 68.41 68.40 69.10 69.03 68.33 66.81 66.37 65.89 65.71 65.58 64.61 63.32 61.94 61.71 61.00 58.07 58.57 60.30 59.39 64.90 64.83 64.34 62.33 61.46 61.03 60.66
53.58 52.88 52.23 52.62 54.39 56.92 58.84 61.00 62.25 63.23 64.15 65.35 66.02 66.77 66.38 66.89 67.48 67.77 67.17 68.44 68.35 68.65 67.05 65.69 65.20 65.06 64.93 63.90 62.15 61.07 60.10 60.26 56.14 56.95 58.84 58.77 64.27 64.56 63.69 62.30 61.08 60.41 59.61
50.59 51.77 50.69 50.44 51.21 53.17 56.31 58.79 59.30 61.71 62.49 62.57 63.37 63.95 64.11 63.88 64.10 66.12 65.61 67.12 68.12 67.86 67.08 66.49 65.72 65.03 63.94 62.75 61.45 59.86 59.35 58.78 58.19 58.89 59.18 59.95 63.49 62.89 62.38 61.14 60.16 59.38 58.75
48.84 49.04 49.31 49.09 49.26 50.47 53.99 56.75 58.26 61.14 61.47 61.75 62.00 61.33 62.47 64.33 63.59 63.26 63.70 65.00 67.00 66.83 66.84 66.29 65.68 64.82 63.40 61.65 60.47 59.20 58.32 55.66 57.14 57.44 58.36 62.39 62.52 62.06 61.18 60.80 59.67 59.14 58.34
44.63 46.55 47.29 47.15 47.66 49.16 51.91 53.39 56.98 59.40 60.94 60.99 61.66 61.97 62.74 64.60 62.50 63.58 61.44 62.55 64.25 64.63 65.90 66.07 64.67 62.61 60.14 57.75 56.52 57.87 55.81 55.19 56.43 56.96 58.71 62.72 62.28 61.52 60.62 59.82 58.96 58.32 58.08
44.38 45.32 46.36 45.48 46.07 47.05 48.12 50.61 54.37 56.79 58.86 60.88 60.87 61.41 61.75 63.72 62.91 62.88 61.71 63.22 64.21 62.10 64.54 64.01 62.10 60.04 57.53 56.27 55.14 54.95 55.61 55.37 55.03 56.43 58.61 61.10 61.72 61.02 60.44 59.48 59.02 59.12 59.60
42.91 44.37 45.29 44.90 44.66 45.75 46.55 47.95 53.27 54.55 56.14 58.07 59.86 60.61 61.02 60.57 61.67 62.30 63.54 63.74 62.79 62.83 62.91 62.33 61.33 60.32 58.11 57.01 55.75 55.70 55.77 55.63 55.17 54.97 56.40 58.90 61.48 60.54 60.73 60.66 60.80 61.42 62.04
41.52 43.13 43.58 44.46 44.05 45.07 45.90 46.22 50.06 51.92 53.44 55.66 57.42 58.14 59.67 59.72 60.64 61.56 62.88 63.28 61.95 61.48 61.57 61.07 60.98 60.91 59.75 57.38 57.15 56.04 55.70 55.70 55.68 55.11 54.95 56.35 59.47 60.88 61.16 61.59 62.24 62.57 62.88
42.33 42.28 43.72 44.34 44.55 45.27 45.18 45.55 48.19 51.42 54.01 55.86 56.38 56.45 58.61 60.74 61.40 61.61 62.24 63.25 62.29 61.59 61.37 60.79 59.88 60.35 59.94 58.03 57.18 56.78 56.41 56.38 56.33 56.18 55.49 55.39 58.35 59.75 59.78 60.13 60.94 61.68 62.29
41.45 42.28 42.81 44.18 45.23 44.99 45.18 45.76 47.08 50.40 52.89 54.32 54.95 56.11 57.80 58.36 59.86 59.81 61.86 62.68 62.93 61.88 60.74 60.50 60.03 59.56 58.19 57.69 56.91 56.84 56.77 56.55 56.13 56.14 56.03 56.17 55.70 57.49 58.99 59.57 59.91 60.52 61.42
40.17 40.83 42.17 44.64 44.02 43.99 44.28 45.36 47.04 49.17 51.60 52.84 53.41 54.80 55.68 56.16 61.41 60.67 61.12 62.46 62.94 61.27 60.29 58.75 58.26 56.92 56.83 56.81 56.49 56.46 57.25 56.64 56.46 56.25 55.72 55.52 55.46 56.37 57.61 59.70 59.35 59.78 60.10
39.90 40.06 40.44 41.64 42.23 42.72 44.28 44.75 45.65 48.35 50.88 50.58 52.61 52.62 53.94 54.73 60.89 61.29 60.89 61.79 62.57 61.33 59.97 58.65 57.28 56.16 55.01 55.86 56.18 56.54 57.21 56.78 56.86 56.87 56.07 56.13 56.26 56.42 56.23 58.80 57.79 58.15 59.47
38.57 38.57 39.33 40.54 41.51 41.87 42.71 42.88 43.21 47.10 47.69 49.76 50.89 50.83 52.00 55.67 61.16 61.02 61.21 61.43 61.94 60.66 59.69 58.70 56.60 56.58 56.07 55.63 56.09 56.27 57.28 56.23 56.62 57.19 56.78 57.35 57.79 57.77 57.68 56.98 55.97 56.13 57.12
37.77 37.39 37.74 38.59 39.74 40.26 39.15 39.22 39.45 41.92 44.99 48.07 48.10 49.35 50.18 52.24 60.59 60.64 61.18 61.17 61.68 60.11 59.22 57.86 56.52 55.61 53.77 54.76 54.38 52.94 53.68 55.07 55.78 55.90 57.38 56.89 56.48 57.45 55.89 54.34 55.03 52.19 51.02
35.79 35.83 37.32 38.44 39.30 39.94 39.58 39.37 40.00 40.44 44.64 47.05 47.08 48.07 49.24 50.47 56.55 60.89 60.69 60.30 60.41 59.65 58.74 57.64 56.39 54.06 53.59 54.39 52.30 51.74 49.26 52.25 52.29 51.61 51.46 52.38 51.40 51.75 50.18 48.37 47.40 46.23 45.25
34.08 34.38 37.31 38.46 39.19 39.84 39.78 40.02 40.14 42.53 44.78 44.71 43.82 45.54 48.08 49.41 53.62 58.99 60.17 60.07 60.34 59.93 58.31 57.24 56.33 54.98 53.06 53.98 54.78 52.32 47.66 46.16 48.28 50.49 50.21 51.16 49.99 48.20 47.05 46.76 45.15 43.66 43.86
34.08 35.04 37.30 39.01 40.32 41.09 39.86 38.37 37.76 40.12 39.79 42.41 43.74 45.94 47.14 48.59 51.20 54.01 57.79 59.75 59.97 60.15 58.60 57.68 57.28 55.49 56.29 53.37 53.93 55.30 52.95 50.98 47.40 46.71 50.71 51.60 49.53 47.79 45.33 44.30 42.57 41.75 42.42
35.01 34.04 35.39 37.66 39.65 39.72 39.75 39.28 37.87 37.50 39.53 41.06 42.55 44.74 45.69 47.42 49.70 50.32 54.27 57.05 59.15 59.47 59.27 58.91 56.84 56.94 56.35 55.01 53.73 52.56 52.45 52.27 51.69 49.03 46.49 48.83 47.77 44.69 43.55 42.69 41.71 40.39 40.48
33.72 33.83 34.61 36.16 38.19 39.47 38.67 37.97 37.50 37.36 37.96 40.99 42.85 43.43 44.50 45.80 47.44 47.83 49.98 53.22 56.52 59.39 59.24 58.88 58.30 57.46 56.65 55.69 55.02 53.33 52.75 51.70 50.36 49.63 47.86 49.40 48.56 43.36 41.85 41.05 40.18 39.67 39.63

GFSSE_sfc_wetblb_285.txt.gz
Wetbulb
56.45 59.88 63.53 65.83 68.69 69.86 69.88 69.38 69.41 70.46 70.15 70.29 70.83 70.46 70.47 70.48 70.04 69.45 68.90 69.02 68.57 67.79 68.38 69.00 69.50 69.60 69.01 68.31 68.15 68.05 66.48 66.98 67.27 67.16 67.80 67.66 67.05 65.82 64.21 63.79 64.75 64.73 65.86
57.09 59.50 62.09 64.28 67.11 68.81 69.54 69.02 68.98 69.54 69.53 70.48 70.77 70.41 70.14 70.13 70.07 69.49 69.35 70.32 70.05 69.97 69.55 69.41 69.21 69.19 68.15 66.92 67.01 67.17 67.08 67.03 67.01 67.10 67.06 67.08 66.39 65.18 64.31 63.59 63.74 64.22 64.94
55.41 57.75 59.34 62.95 65.72 67.09 68.38 69.04 68.63 68.86 69.05 70.00 70.27 70.74 70.06 69.82 69.93 69.65 69.50 70.70 70.85 69.97 69.79 69.48 69.28 68.27 67.16 66.57 66.65 66.28 66.62 66.01 65.70 65.32 64.82 62.48 62.23 64.91 65.49 64.47 65.52 64.31 65.33
54.57 56.10 57.59 61.60 64.40 65.66 66.77 68.38 68.33 68.34 68.49 69.08 69.68 70.29 70.44 70.01 69.69 69.59 69.52 70.56 70.20 70.14 69.59 69.08 68.49 66.88 66.31 66.66 66.15 66.12 65.86 65.26 64.35 62.61 59.82 61.17 62.95 64.29 64.71 64.88 65.51 65.45 65.09
53.25 54.88 55.42 59.87 62.49 64.18 65.53 66.93 68.03 67.92 67.46 67.61 68.00 69.17 70.11 69.86 69.40 69.17 69.52 69.91 69.52 69.06 68.62 68.27 68.20 66.59 66.46 66.78 66.53 66.14 65.47 64.08 62.80 58.97 58.28 59.30 62.29 64.25 63.53 63.32 62.42 62.84 62.47
51.84 53.32 54.22 58.11 60.10 61.96 63.56 65.24 67.14 67.62 67.07 67.09 66.84 67.04 68.36 69.27 69.32 68.50 68.63 69.25 69.33 68.18 66.56 66.78 67.52 66.50 66.19 66.02 66.19 65.63 65.02 63.47 60.41 56.60 58.46 61.65 58.76 62.65 62.29 62.45 61.53 61.58 61.30
50.83 52.02 52.43 55.98 57.26 58.97 60.93 63.59 64.88 66.18 65.67 65.93 66.17 66.48 66.77 66.98 68.88 68.32 68.08 68.19 68.49 68.26 67.03 65.99 67.15 67.01 66.94 66.20 65.51 64.19 63.69 63.47 56.49 56.35 57.60 58.04 59.28 62.09 62.25 61.83 61.22 60.85 60.77
49.27 51.34 50.79 51.91 54.06 55.70 57.65 60.20 61.87 64.25 64.67 63.52 62.97 63.11 64.73 66.07 66.74 68.43 67.93 68.03 67.20 67.50 66.49 67.29 66.89 66.46 66.21 64.81 62.91 62.04 61.89 61.82 58.82 58.68 60.04 59.00 63.10 62.79 61.54 61.12 60.55 60.73 59.64
48.11 49.36 48.20 48.48 49.57 51.57 53.53 56.50 57.73 61.40 63.80 64.64 63.20 62.54 63.68 65.09 65.04 66.84 66.92 67.77 67.97 67.20 66.55 67.20 66.81 66.03 65.46 63.87 61.82 61.41 61.50 60.66 56.70 57.60 60.35 61.03 64.49 63.13 61.69 61.05 60.58 59.50 58.45
46.56 46.93 46.52 46.23 46.52 47.29 48.80 53.48 54.20 57.85 61.37 62.83 63.18 62.64 62.98 63.20 64.37 64.53 64.19 66.66 67.42 66.68 67.11 67.28 66.73 65.78 64.78 62.97 61.28 61.25 60.46 59.19 55.69 56.26 58.21 61.32 63.69 62.83 61.88 60.53 59.42 58.48 57.84
45.90 44.95 45.25 44.75 44.72 45.36 47.87 49.74 50.64 54.86 57.91 60.77 61.63 61.04 61.59 63.37 62.93 62.41 62.20 64.08 66.54 66.18 66.35 66.61 65.52 65.06 63.67 61.49 60.40 59.76 58.52 56.34 56.48 56.81 57.30 62.69 63.01 62.15 60.92 59.84 59.05 58.42 58.08
42.07 43.42 44.41 43.67 43.80 43.95 46.77 46.60 47.71 52.52 54.99 57.89 60.62 61.11 61.87 62.05 62.56 61.76 59.62 60.79 64.24 64.32 65.21 65.28 64.31 63.21 59.34 57.46 57.24 57.33 55.89 56.42 56.36 56.32 57.49 62.30 62.13 60.98 60.10 59.37 58.55 58.47 58.77
41.40 42.68 43.56 43.33 43.38 42.90 43.63 45.25 45.85 48.20 52.12 55.68 57.95 59.89 61.13 62.70 61.51 61.61 61.80 61.23 61.67 60.12 63.67 63.08 60.94 59.05 57.24 55.53 54.74 54.51 55.32 55.70 55.92 56.81 58.93 61.70 62.02 60.66 59.74 59.19 59.35 59.81 60.86
40.19 41.14 42.44 42.98 42.89 42.96 43.53 44.06 44.62 46.55 49.50 53.35 56.03 58.19 58.63 60.49 60.77 59.87 61.89 62.19 61.29 62.88 61.62 59.81 58.42 58.04 57.00 55.72 55.19 53.94 54.47 54.91 55.07 55.87 56.79 59.01 61.71 60.77 60.46 60.54 61.26 62.56 62.92
39.90 40.27 41.02 42.09 42.47 43.18 43.40 43.46 44.30 45.33 47.37 51.55 54.75 56.90 57.56 57.82 60.16 59.47 59.96 63.12 63.00 63.13 60.71 58.79 58.06 57.60 57.04 56.02 55.87 55.01 54.05 54.17 53.75 54.50 54.94 56.42 59.70 60.90 60.71 61.63 61.74 62.46 62.72
40.66 40.20 41.05 41.77 42.60 43.38 42.43 42.51 43.84 44.90 46.82 51.47 53.60 55.68 56.37 57.17 58.71 59.72 59.64 61.76 62.36 62.39 60.54 58.60 57.32 57.10 57.67 57.20 56.49 55.70 54.81 54.60 54.11 53.42 53.74 54.52 58.32 60.34 60.12 60.00 60.75 61.64 62.38
40.44 40.30 40.19 41.65 42.93 41.62 41.47 42.52 42.78 44.09 46.20 49.45 53.46 53.79 55.14 56.02 57.70 58.09 58.84 61.24 61.51 62.08 60.62 58.58 58.42 58.26 57.87 57.85 56.92 56.33 55.59 55.30 54.89 54.39 53.81 53.51 54.45 57.07 58.48 59.33 60.34 61.16 61.48
39.29 38.97 39.23 41.99 40.97 40.60 40.87 41.48 41.85 42.94 44.98 49.10 51.69 52.83 53.50 54.14 55.69 56.89 59.10 60.00 61.66 60.98 60.31 58.99 58.38 58.15 58.03 57.14 56.69 56.32 55.68 55.56 54.70 54.69 54.93 54.95 54.57 54.70 56.87 60.02 60.36 60.64 60.74
38.67 38.42 37.99 38.63 39.28 39.71 40.51 40.70 40.94 41.83 43.69 48.87 50.64 51.94 51.73 52.53 53.21 54.77 55.53 60.26 61.45 60.63 60.36 58.70 58.12 58.77 57.94 56.86 56.54 56.13 55.90 55.84 55.56 55.19 54.32 54.28 55.08 55.70 56.97 57.83 56.55 57.46 58.96
36.61 36.60 37.10 37.90 38.20 39.60 39.89 39.72 40.05 40.80 43.75 46.46 49.86 49.58 49.86 50.76 51.64 53.49 54.87 58.61 60.29 59.82 59.69 59.28 57.71 58.45 57.79 56.52 56.02 55.37 55.88 56.15 55.69 54.71 54.81 56.76 57.02 56.87 56.29 55.44 53.49 52.87 55.69
35.09 35.08 35.51 36.44 37.43 38.88 38.38 37.26 37.46 37.65 40.07 44.09 48.28 48.55 48.11 49.46 50.58 52.26 54.33 57.94 59.25 59.68 59.04 58.91 57.77 56.12 55.26 55.99 54.40 53.73 54.59 55.50 55.28 52.54 53.64 55.52 53.71 52.61 51.67 50.74 49.26 48.09 47.98
33.89 33.86 35.15 36.41 37.78 38.68 38.92 38.53 37.64 37.82 40.74 44.11 47.34 46.98 48.14 48.73 49.85 51.35 54.30 57.88 59.00 59.29 58.90 58.07 57.07 55.78 54.96 55.79 52.66 52.01 51.30 53.21 51.47 51.64 50.97 50.02 47.71 47.58 45.46 44.05 45.29 45.10 44.88
32.34 32.88 34.97 36.22 37.60 38.19 38.86 39.47 38.17 39.83 43.78 45.51 43.89 44.62 46.76 48.00 49.26 50.90 52.52 58.60 59.37 59.72 58.42 57.60 56.94 56.48 54.27 54.18 54.52 53.32 48.67 49.03 49.34 50.67 49.41 48.06 46.84 45.63 43.88 43.11 43.11 42.68 42.31
32.64 32.66 34.78 36.51 37.49 38.67 38.21 37.77 35.83 35.64 38.67 41.86 41.78 44.36 45.82 48.29 48.46 50.18 52.80 59.40 59.46 60.00 58.95 57.93 57.79 57.05 55.50 53.97 53.03 53.44 50.73 49.79 48.14 46.99 49.89 48.09 46.64 44.52 42.45 41.48 41.17 40.97 41.53
33.01 31.79 33.47 34.70 36.40 37.50 37.22 36.76 36.10 34.76 39.64 40.86 42.37 44.03 45.61 47.44 48.53 49.61 56.94 59.45 59.44 59.71 58.94 58.18 57.33 56.56 56.33 54.73 53.03 52.31 51.74 50.23 48.80 46.15 47.01 46.49 44.04 42.35 41.58 40.68 40.54 40.37 40.52
31.61 31.92 32.39 33.39 35.50 37.05 36.60 35.95 35.44 34.92 38.68 39.57 41.35 42.48 44.26 45.62 47.00 49.58 50.71 59.15 59.53 58.95 58.44 58.05 57.64 56.88 56.34 55.27 54.85 53.52 52.46 50.48 48.67 46.91 46.04 47.64 45.68 40.97 40.68 40.46 39.70 39.41 39.68

GFSSE_sfc_wetblb_291.txt.gz
Wetbulb
56.09 56.74 60.82 63.32 65.70 67.22 67.99 69.06 69.53 69.19 69.01 68.99 69.30 69.71 69.98 70.08 70.72 70.47 70.43 70.26 70.03 69.03 69.90 69.08 69.13 69.57 69.28 68.86 68.58 68.20 68.29 67.94 68.27 67.95 67.34 66.28 65.98 67.45 67.57 66.02 65.80 63.81 64.46
55.73 56.17 58.61 62.23 63.92 65.13 66.65 67.96 68.75 69.21 68.74 68.70 69.03 69.73 69.92 69.97 70.22 70.10 69.65 69.39 69.30 68.84 69.56 70.04 69.63 69.69 69.23 68.46 67.62 68.00 68.20 67.98 67.76 67.02 67.15 66.62 65.82 66.66 67.00 65.89 65.58 63.94 64.70
54.46 55.12 55.59 60.70 62.43 63.19 64.58 66.05 67.98 68.88 68.71 68.65 69.03 69.19 69.94 69.89 70.01 69.86 69.39 69.66 68.85 68.68 69.82 69.96 69.75 69.09 68.49 67.90 67.52 67.49 67.83 67.08 66.06 66.20 65.42 64.44 64.62 65.64 65.95 65.81 65.28 64.63 64.24
54.11 54.38 54.57 59.05 60.94 61.97 62.43 64.36 66.09 67.65 68.68 68.60 68.86 68.94 69.32 70.07 69.96 69.93 69.73 69.81 70.26 70.02 69.74 69.98 69.21 68.25 67.87 67.45 67.33 67.41 66.98 65.93 65.35 64.74 63.71 65.40 65.47 66.80 66.91 66.40 65.63 64.61 63.14
53.38 53.72 53.45 57.49 59.10 60.34 61.23 62.09 64.31 65.72 67.59 68.10 67.91 68.26 69.04 69.59 69.75 69.58 69.52 69.46 69.85 69.96 69.82 69.74 68.93 67.36 67.31 67.10 67.10 66.51 65.68 64.49 64.30 63.47 63.41 63.94 64.23 64.97 65.47 64.62 63.98 63.68 62.97
51.40 52.53 52.44 55.75 57.00 58.17 59.55 60.73 62.05 63.82 65.86 67.29 67.58 67.83 67.87 68.54 69.02 69.18 69.10 69.06 69.17 69.37 69.50 68.93 67.86 67.39 66.54 66.78 66.26 64.97 64.21 63.74 62.61 62.04 62.61 63.43 63.04 63.33 63.80 63.31 63.09 62.63 61.84
49.97 50.89 50.67 53.28 54.30 55.45 57.01 58.72 59.75 61.45 63.96 65.34 66.31 66.20 67.17 66.59 66.88 67.98 68.23 68.30 68.57 68.73 68.82 68.19 67.63 67.27 67.38 67.15 65.86 64.39 63.67 62.49 61.87 61.91 61.08 61.76 62.54 63.12 62.82 62.94 62.30 61.72 61.08
48.86 49.29 49.20 49.42 51.02 52.31 53.48 56.13 57.06 58.79 61.48 63.05 64.70 65.67 64.92 65.72 65.90 66.16 66.66 67.70 68.16 68.34 68.29 67.92 67.88 67.87 67.55 67.25 66.59 65.17 62.81 60.52 60.18 61.34 61.51 61.99 63.58 63.19 62.59 62.08 61.58 60.33 59.37
48.67 48.29 48.16 47.91 47.96 48.77 50.34 52.57 53.75 55.41 58.19 60.19 62.26 63.42 64.55 64.10 64.57 64.65 64.45 66.56 67.26 67.42 67.53 67.72 67.28 67.49 67.42 66.67 65.89 63.90 61.64 60.19 60.43 60.85 61.05 62.19 63.51 62.57 62.33 61.91 60.33 59.20 58.14
47.37 47.38 47.11 46.75 46.72 46.84 47.80 49.75 51.01 52.21 54.42 56.71 59.26 59.93 61.33 63.15 63.24 63.25 63.33 63.72 65.68 67.05 66.61 66.97 66.56 66.56 65.81 64.74 64.16 62.67 61.06 60.51 61.23 61.38 61.96 62.75 64.04 62.40 62.01 60.48 59.29 58.57 58.45
46.74 46.08 46.38 45.80 45.77 45.97 47.28 47.86 48.43 49.57 51.38 53.57 56.31 57.85 59.76 63.00 62.90 62.79 62.02 62.97 64.93 64.99 65.65 65.81 65.77 64.87 63.41 62.77 62.53 61.23 59.68 60.01 61.37 62.18 63.04 63.24 64.00 63.50 61.08 59.83 59.23 58.82 58.90
44.95 45.47 45.59 44.77 44.96 45.03 46.13 46.87 47.10 48.10 49.38 51.39 53.84 56.84 58.97 60.76 62.51 62.18 60.07 61.07 63.30 63.60 63.78 65.37 64.58 61.33 59.34 60.28 60.51 59.38 59.31 58.99 59.51 60.97 62.33 63.03 62.95 61.96 60.88 59.85 59.18 59.29 60.35
44.83 45.11 44.77 44.30 44.53 44.42 44.90 45.83 45.76 47.01 48.24 49.54 51.70 54.99 57.68 58.43 60.68 61.59 62.25 61.75 63.39 60.49 63.05 63.19 61.46 59.03 58.21 57.37 57.85 57.98 58.89 58.86 59.19 59.90 60.94 61.98 62.01 61.21 60.68 60.22 60.06 61.77 62.72
43.75 44.05 44.47 43.81 43.80 44.38 44.90 44.36 44.80 45.67 47.14 47.32 49.59 53.84 56.73 57.44 57.92 60.33 60.43 62.09 62.38 62.49 61.94 61.17 59.90 58.05 57.32 56.54 56.40 57.13 57.29 58.14 59.37 60.04 60.19 59.24 61.76 61.17 61.31 61.66 62.85 62.97 63.29
42.67 43.59 43.89 43.17 43.36 44.05 43.57 43.44 44.01 44.52 44.99 46.29 48.44 53.02 55.46 55.75 56.16 57.87 59.73 60.40 61.45 61.71 61.03 59.17 58.08 56.94 57.00 56.86 56.40 56.59 56.43 57.21 58.19 59.30 59.81 56.88 60.31 61.92 62.28 62.06 62.69 62.99 63.04
43.20 43.48 43.40 42.99 43.33 43.78 42.61 42.42 43.15 43.74 44.39 45.77 47.02 50.01 54.95 55.50 55.70 57.56 58.08 59.42 60.72 61.10 60.87 58.82 57.04 56.34 57.05 56.74 55.81 55.58 56.15 56.56 57.30 57.96 58.18 59.10 58.79 60.15 60.53 61.31 62.35 62.57 62.66
43.31 43.29 42.55 42.35 43.83 42.16 41.77 42.07 42.85 43.37 43.88 44.66 47.17 50.91 53.17 54.58 54.98 55.73 57.13 58.79 60.31 61.09 59.54 57.86 56.18 56.85 57.02 57.28 56.39 55.90 55.78 55.72 55.94 55.86 56.60 57.45 57.76 57.30 60.56 61.76 61.89 62.21 62.54
41.98 41.29 41.49 42.24 41.43 41.35 41.24 42.14 42.58 43.15 43.74 44.71 48.31 49.99 51.72 53.01 53.91 54.30 55.82 57.21 60.11 59.07 57.93 56.83 55.21 55.01 55.62 56.51 56.20 56.79 56.81 56.40 56.08 56.10 56.11 57.07 57.30 59.52 59.23 59.66 60.20 60.70 61.03
40.96 40.18 39.77 39.87 39.91 40.55 41.57 42.15 42.50 42.80 43.59 45.72 46.15 49.45 51.06 51.00 51.98 52.99 54.03 55.93 57.73 58.79 57.29 56.74 55.62 55.27 54.72 56.19 56.02 56.59 56.68 56.58 56.28 55.80 55.82 56.06 57.41 57.14 55.41 55.36 55.50 57.22 58.87
38.51 38.52 38.66 38.75 39.15 40.30 41.24 41.51 42.28 42.63 43.30 43.63 46.77 49.12 48.95 49.17 50.43 51.53 52.94 54.32 56.29 58.43 57.63 57.24 56.01 56.14 56.06 56.09 55.95 55.97 56.27 56.08 56.12 56.27 56.55 57.07 56.72 54.71 52.87 51.57 51.66 52.86 55.53
36.90 37.09 37.02 37.73 38.59 39.88 39.68 39.34 40.06 40.16 41.04 43.94 46.31 48.04 47.60 48.57 49.93 50.70 52.05 53.35 55.12 56.41 57.85 57.27 56.30 55.59 55.51 56.52 55.10 54.53 52.74 53.07 52.32 52.54 53.38 51.67 49.98 48.54 48.25 48.85 48.98 48.38 49.06
36.08 35.83 36.61 37.32 38.41 39.37 39.56 39.70 39.96 40.02 40.74 42.05 46.40 46.03 47.17 47.88 48.75 50.15 51.52 52.56 54.30 56.26 58.04 57.55 57.12 56.61 56.07 56.64 53.70 53.50 49.46 50.27 49.90 49.75 49.02 47.36 45.66 46.01 45.81 46.38 45.89 45.66 46.50
35.13 35.11 36.04 37.03 38.04 38.87 39.03 39.51 39.69 40.50 41.91 43.81 43.19 44.55 46.14 47.40 48.60 49.75 50.50 51.75 52.59 56.13 57.64 57.68 57.87 56.81 54.59 56.09 55.93 54.13 50.41 48.72 48.75 49.18 46.95 46.05 44.61 44.52 45.33 44.10 43.79 44.09 45.07
35.09 34.55 35.70 36.37 37.38 39.08 38.65 38.02 37.22 37.25 37.41 40.36 41.50 43.59 45.75 47.51 48.26 49.29 50.05 51.16 52.14 54.27 57.71 58.20 58.62 57.55 56.23 54.26 54.51 52.69 52.95 53.14 48.94 46.08 47.35 44.89 44.20 42.85 42.71 42.18 42.28 42.66 43.12
34.37 34.14 34.60 35.15 37.18 38.11 38.23 37.49 37.17 36.86 38.03 39.73 41.58 42.64 44.89 46.51 47.88 48.30 48.99 50.31 51.12 53.20 57.59 58.85 58.16 57.47 56.79 55.45 54.41 52.56 52.18 50.56 51.63 50.05 45.22 43.07 42.62 41.75 41.73 41.60 41.30 41.34 42.16
33.34 33.60 33.92 34.64 36.41 37.52 37.66 37.16 36.83 36.69 37.28 38.37 39.64 40.98 43.25 44.80 46.51 47.34 48.09 49.31 52.26 53.89 57.69 58.63 58.42 57.58 56.84 56.29 54.79 54.45 52.20 51.49 49.65 49.67 48.20 45.78 43.69 40.49 40.94 40.79 40.45 40.57 40.88